This demonstration page uses our WeatherBlox Daily Observations layout. Learn more.

Hourly Observations for May 21, 2015

Temp ( °F °C ) Dew Point ( °F °C ) Humidity (%) Winds ( mph kmh ) Pressure ( in mb ) Visibility ( mi km ) Precip ( " mm )
12:15 am 00:15 Clear 40 4.5 38 3.3 92 92 NW 5 7 30.36 1028 10 16.0934 0 0
12:35 am 00:35 Clear 38 3.3 36 2.1 92 92 W 6 9 30.36 1028 10 16.0934 0 0
12:55 am 00:55 Clear 38 3.5 37 2.5 93 93 Calm 30.39 1029 10 16.0934 0 0
1:15 am 01:15 Clear 39 3.9 37 2.7 92 92 W 3 6 30.39 1029 10 16.0934 0 0
1:35 am 01:35 Clear 38 3.2 36 2.1 93 93 W 5 7 30.39 1029 10 16.0934 0 0
1:55 am 01:55 Clear 39 3.7 37 2.7 93 93 Calm 30.36 1028 10 16.0934 0 0
2:15 am 02:15 Clear 37 3 35 1.9 93 93 W 6 9 30.36 1028 10 16.0934 0 0
2:35 am 02:35 Clear 38 3.5 37 2.5 93 93 W 5 7 30.36 1028 10 16.0934 0 0
2:55 am 02:55 Clear 39 4 37 2.8 92 92 W 5 7 30.36 1028 10 16.0934 0 0
3:15 am 03:15 Clear 39 3.7 37 2.6 93 93 W 5 7 30.36 1028 10 16.0934 0 0
3:35 am 03:35 Clear 38 3.5 36 2.3 92 92 W 6 9 30.36 1028 10 16.0934 0 0
3:55 am 03:55 Clear 38 3.3 36 2.2 93 93 W 6 9 30.36 1028 10 16.0934 0 0
4:15 am 04:15 Clear 37 3 35 1.8 92 92 W 5 7 30.36 1028 10 16.0934 0 0
4:35 am 04:35 Clear 37 3 36 2 93 93 WNW 5 7 30.36 1028 10 16.0934 0 0
4:55 am 04:55 Clear 37 3 35 1.9 93 93 W 6 9 30.36 1028 10 16.0934 0 0
5:15 am 05:15 Clear 38 3.1 35 1.8 91 91 W 5 7 30.36 1028 10 16.0934 0 0
5:35 am 05:35 Clear 37 2.7 35 1.5 92 92 WNW 5 7 30.36 1028 10 16.0934 0 0
5:55 am 05:55 Clear 39 4 36 2.4 89 89 W 7 11 30.36 1028 10 16.0934 0 0
6:15 am 06:15 Clear 37 3 35 1.6 91 91 W 5 7 30.36 1028 10 16.0934 0 0
6:35 am 06:35 Sunny 38 3.2 35 1.7 90 90 W 5 7 30.36 1028 10 16.0934 0 0
6:55 am 06:55 Sunny 38 3.5 36 2.2 91 91 WNW 5 7 30.36 1028 10 16.0934 0 0
7:15 am 07:15 Sunny 40 4.5 37 2.7 88 88 WNW 5 7 30.36 1028 10 16.0934 0 0
7:35 am 07:35 Sunny 41 5 38 3.3 89 89 WNW 3 6 30.39 1029 10 16.0934 0 0
7:55 am 07:55 Sunny 43 6 39 3.9 87 87 NW 6 9 30.33 1027 10 16.0934 0 0
8:15 am 08:15 Sunny 45 7.1 40 4.6 84 84 W 5 7 30.33 1027 10 16.0934 0 0
8:35 am 08:35 Sunny 47 8.1 42 5.3 83 83 WNW 3 6 30.33 1027 10 16.0934 0 0
8:55 am 08:55 Sunny 48 9 42 5.4 78 78 NW 6 9 30.3 1026 10 16.0934 0 0
9:15 am 09:15 Sunny 49 9.5 41 4.9 73 73 NNW 6 9 30.3 1026 10 16.0934 0 0
9:35 am 09:35 Sunny 50 10.1 41 4.9 70 70 NNW 5 7 30.3 1026 10 16.0934 0 0
9:55 am 09:55 Sunny 51 10.6 40 4.5 66 66 N 6 9 30.3 1026 10 16.0934 0 0
10:15 am 10:15 Sunny 53 11.4 39 4 61 61 N 5 7 30.3 1026 10 16.0934 0 0
10:35 am 10:35 Sunny 53 11.6 37 2.8 55 55 NNW 5 7 30.27 1025 10 16.0934 0 0
10:55 am 10:55 Sunny 54 12.1 37 2.8 53 53 WNW 5 7 30.27 1025 10 16.0934 0 0
11:15 am 11:15 Sunny 54 12.3 36 2.4 51 51 Calm 30.27 1025 10 16.0934 0 0
11:35 am 11:35 Sunny 55 12.7 36 2.4 50 50 W 5 7 30.27 1025 10 16.0934 0 0
11:55 am 11:55 Sunny 55 12.9 36 2.1 48 48 S 3 6 30.27 1025 10 16.0934 0 0
12:15 pm 12:15 Sunny 56 13.6 37 2.9 49 49 WNW 5 7 30.27 1025 10 16.0934 0 0
12:35 pm 12:35 Sunny 57 13.7 37 2.8 48 48 SSE 3 6 30.27 1025 10 16.0934 0 0
12:55 pm 12:55 Sunny 56 13.3 35 1.9 46 46 Calm 30.27 1025 10 16.0934 0 0
1:15 pm 13:15 Sunny 57 14 37 2.8 47 47 SSE 5 7 30.27 1025 10 16.0934 0 0
1:35 pm 13:35 Sunny 58 14.5 36 2.1 43 43 Calm 30.27 1025 10 16.0934 0 0
1:55 pm 13:55 Sunny 59 14.8 35 1.6 41 41 Calm 30.21 1023 10 16.0934 0 0
2:15 pm 14:15 Sunny 59 15.2 36 2.1 41 41 WSW 5 7 30.21 1023 10 16.0934 0 0
2:35 pm 14:35 Sunny 59 15 35 1.9 41 41 Calm 30.21 1023 10 16.0934 0 0
2:55 pm 14:55 Sunny 60 15.4 36 2 41 41 S 6 9 30.21 1023 10 16.0934 0 0
3:15 pm 15:15 Sunny 60 15.8 34 1.1 37 37 ESE 6 9 30.21 1023 10 16.0934 0 0
3:35 pm 15:35 Sunny 61 16.1 36 2.1 39 39 Calm 30.18 1022 7 11.26538 0 0
3:55 pm 15:55 Sunny 62 16.5 34 0.9 35 35 Calm 30.18 1022 10 16.0934 0 0
4:15 pm 16:15 Sunny 63 17 35 1.8 36 36 S 8 13 30.18 1022 10 16.0934 0 0
4:35 pm 16:35 Sunny 62 16.7 34 1.3 36 36 SSW 5 7 30.18 1022 10 16.0934 0 0
4:55 pm 16:55 Sunny 62 16.9 34 1 34 34 SSE 8 13 30.18 1022 10 16.0934 0 0
5:15 pm 17:15 Sunny 62 16.7 33 0.3 33 33 S 9 15 30.15 1021 10 16.0934 0 0
5:35 pm 17:35 Sunny 63 17.4 35 1.5 35 35 SW 6 9 30.15 1021 10 16.0934 0 0
5:55 pm 17:55 Sunny 63 17.1 34 0.9 34 34 SE 5 7 30.15 1021 10 16.0934 0 0
6:15 pm 18:15 Sunny 63 17.1 35 1.8 36 36 S 3 6 30.15 1021 10 16.0934 0 0
6:35 pm 18:35 Sunny 63 17.2 34 1.1 34 34 SSE 7 11 30.12 1020 10 16.0934 0 0
6:55 pm 18:55 Sunny 63 17 34 1.3 35 35 S 7 11 30.12 1020 10 16.0934 0 0
7:15 pm 19:15 Sunny 62 16.5 35 1.9 38 38 S 8 13 30.12 1020 10 16.0934 0 0
7:35 pm 19:35 Sunny 61 16.2 35 1.9 38 38 SSW 8 13 30.12 1020 10 16.0934 0 0
7:55 pm 19:55 Sunny 60 15.8 35 1.8 39 39 S 5 7 30.12 1020 10 16.0934 0 0
8:15 pm 20:15 Sunny 60 15.3 36 2.1 41 41 S 6 9 30.12 1020 10 16.0934 0 0
8:35 pm 20:35 Sunny 59 15 37 2.5 43 43 S 5 7 30.12 1020 10 16.0934 0 0
8:55 pm 20:55 Clear 58 14.5 38 3.1 47 47 S 6 9 30.12 1020 10 16.0934 0 0
9:15 pm 21:15 Clear 57 13.7 38 3.5 50 50 S 6 9 30.18 1022 10 16.0934 0 0
9:35 pm 21:35 Clear 56 13.3 38 3.5 52 52 S 6 9 30.18 1022 10 16.0934 0 0
9:55 pm 21:55 Clear 54 12.4 39 4 57 57 S 5 7 30.18 1022 10 16.0934 0 0
10:15 pm 22:15 Clear 53 11.5 41 5.2 66 66 S 5 7 30.18 1022 10 16.0934 0 0
10:35 pm 22:35 Clear 52 11.1 41 5 66 66 S 6 9 30.18 1022 10 16.0934 0 0
10:55 pm 22:55 Clear 51 10.8 40 4.5 65 65 S 5 7 30.18 1022 10 16.0934 0 0
11:15 pm 23:15 Clear 50 10.2 41 4.8 69 69 S 3 6 30.21 1023 10 16.0934 0 0
11:35 pm 23:35 Clear 50 10.1 40 4.5 68 68 S 5 7 30.24 1024 10 16.0934 0 0
11:55 pm 23:55 Clear 52 11 38 3.1 59 59 S 6 9 30.24 1024 10 16.0934 0 0

Powered by AerisWeather